Simultaneous Nadir Overpasses (SNOs) Predictions

Prediction of SNOs between LANDSAT-8 and NOAA-19 Satellite Orbit:

Table of predicted SNOs for the next 14.0 days since TLE Epoch: 7/31/2015
Index Date (LANDSAT-8) Time (LANDSAT-8) Lat,Lon (LANDSAT-8) SZA (LANDSAT-8 ) Date (NOAA-19) Time (NOAA-19) Lat,Lon (NOAA-19) SZA (NOAA-19 ) Distance(km) Time Diff (sec)
1 07/31/2015 19:49:19 74.00,-114.24 55.73 07/31/2015 19:48:12 74.07,-116.82 55.80 79.41 67
2 07/31/2015 20:38:58 -73.41, 52.10 124.87 07/31/2015 20:39:01 -73.38, 52.12 124.89 2.96 3
3 08/03/2015 01:23:15 -73.44, -18.89 124.27 08/03/2015 01:22:22 -73.47, -18.90 124.24 3.42 53
4 08/03/2015 02:12:42 73.36, 148.58 55.66 08/03/2015 02:13:19 73.38, 148.58 55.68 2.20 37
5 08/05/2015 06:56:58 73.44, 77.68 56.32 08/05/2015 06:56:39 73.46, 77.61 56.34 2.96 19
6 08/05/2015 07:46:28 -73.32,-114.93 123.80 08/05/2015 07:47:41 -73.35,-114.91 123.77 3.17 73
7 08/07/2015 11:41:13 73.57, 6.89 57.05 08/07/2015 11:40:01 73.64, 6.39 57.12 17.19 72
8 08/07/2015 12:30:44 -73.40, 174.16 123.11 08/07/2015 12:31:01 -73.41, 174.16 123.11 0.76 17
9 08/09/2015 17:15:00 -73.47, 103.25 122.42 08/09/2015 17:14:21 -73.47, 103.22 122.42 0.77 39
10 08/09/2015 18:04:27 73.38, -89.30 57.51 08/09/2015 18:05:17 73.40, -89.34 57.52 1.89 50
11 08/11/2015 22:48:43 73.45,-160.23 58.22 08/11/2015 22:48:36 73.43,-160.21 58.21 1.65 7
12 08/11/2015 23:38:22 -72.86, 6.22 122.37 08/11/2015 23:39:30 -72.87, 8.29 122.34 67.91 68
13 08/14/2015 03:32:59 73.51,
